Location: Burbank
(38.7788°N, 114.0429°W)
Time: 10:33:39
(UTC+00:00)

Vanguard 2 - Pass Details

Date: 10 May 2026
Orbit: 553 x 2894 km, 32.9° (Epoch: 11 June)

Event Time Altitude Azimuth Distance (km) Brightness Sun altitude
Rises 11:25:42 0° 244° (WSW) 6,724 - -11.5°
Reaches altitude 10° 11:30:19 10° 241° (WSW) 5,688 - -10.8°
Exits shadow 11:31:04 12° 241° (WSW) 5,521 11.2 -10.7°
Maximum altitude 11:47:01 61° 167° (SSE) 2,666 10.2 -8.0°
Drops below altitude 10° 11:58:43 10° 91° (E) 4,130 12.3 -6.0°
Sets 12:01:31 0° 88° (E) 4,849 13.0 -5.6°
